Miscellaneous Local Product
Issued by NWS Hastings, NE

Home | Current Version | Previous Version | Text Only | Print | Product List | Glossary Off
Versions: 1 2 3 4 5 6 7 8 9 10 11 12 13 14 15 16 17 18 19 20 21 22 23 24 25 26 27 28 29 30 31 32 33 34 35 36 37 38 39 40 41 42 43 44 45 46 47 48 49 50

000
AXUS43 KGID 010802
MISGRI

GID CWA HOURLY WEATHER ROUNDUP
NATIONAL WEATHER SERVICE HASTINGS NE
300 AM CDT FRI AUG 01 2014

NOTE: "FAIR" INDICATES FEW OR NO CLOUDS BELOW 12,000 FEET WITH NO
SIGNIFICANT WEATHER AND/OR OBSTRUCTIONS TO VISIBILITY.

...SOUTH CENTRAL NEBRASKA...

CITY           SKY/WX    TMP DP  RH WIND       PRES   REMARKS
GRAND ISLAND   CLEAR     62  59  90 N5        30.05F
HASTINGS       CLEAR     62  57  83 N5        30.05S
KEARNEY        CLEAR     63  59  88 NW6       30.07S
ORD            CLEAR     59  58  96 NW5       30.07S
YORK           CLEAR     59  59 100 NE5       30.04R
AURORA         CLEAR     62  62 100 N5        30.04S FOG
LEXINGTON      CLEAR     57  55  93 W6        30.09S
HOLDREGE       CLEAR     60  58  94 NW3       30.07S
HEBRON         CLEAR     65  53  65 SW5       30.02F

...NEBRASKA PANHANDLE...

CITY           SKY/WX    TMP DP  RH WIND       PRES   REMARKS
CHADRON        PTCLDY    56  47  71 CALM      30.14S
ALLIANCE       CLEAR     51  44  77 W7        30.17F
SCOTTSBLUFF    CLEAR     58  50  75 CALM      30.19S
SIDNEY         CLEAR     56  44  64 SE3       30.21S

...WESTERN AND NORTH CENTRAL NEBRASKA...

CITY           SKY/WX    TMP DP  RH WIND       PRES   REMARKS
VALENTINE      CLEAR     62  58  86 CALM      30.11S
AINSWORTH      CLEAR     59  59  99 S6        30.11S
ONEILL           N/A     61  60  99 CALM      30.09S FOG
BROKEN BOW     CLEAR     58  56  93 N3        30.09F
IMPERIAL       CLEAR     62  55  77 CALM      30.15S
NORTH PLATTE   CLEAR     55  51  86 W5        30.12S
MCCOOK         PTCLDY    60  57  89 SW5       30.11S

...EASTERN NEBRASKA...

CITY           SKY/WX    TMP DP  RH WIND       PRES   REMARKS
NORFOLK        CLEAR     60  57  89 CALM      30.06S
SO SIOUX CITY  CLEAR     60  58  92 E3        30.06F
TEKAMAH        MOCLDY    64  60  87 S3        30.06R
ALBION         CLEAR     58  56  92 CALM      30.07S
OMAHA EPPLEY   CLOUDY    68  63  84 E8        30.06F
OFFUTT AFB     MOCLDY    66  66  99 E6        30.06F
MILLARD        CLOUDY    68  61  78 SE7       30.06S
LINCOLN        PTCLDY    69  58  67 SE10      30.04S
NEBRASKA CITY  LGT RAIN  66  61  81 SE7       30.07F
BEATRICE       PTCLDY    66  59  77 SE8       30.03S
FALLS CITY     CLOUDY    66  61  84 E6        30.06S

...NORTHERN KANSAS...

CITY           SKY/WX    TMP DP  RH WIND       PRES   REMARKS
GOODLAND       CLEAR     62  52  69 W10       30.17S
HILL CITY      CLEAR     64  52  64 W3        30.08R
NORTON         SUNNY     61  54  77 N7        30.07S
PHILLIPSBURG   CLEAR     63  59  88 W5        30.05S
SMITH CENTER   CLEAR     64  57  77 S5        30.05S
HAYS           CLEAR     64  55  72 SW13      30.07F
RUSSELL        CLEAR     65  58  78 S12       30.05S
CONCORDIA      CLEAR     68  55  63 SW9       30.02F
SALINA         CLEAR     63  54  72 S7        30.05F
TOPEKA         PTCLDY    67  60  78 CALM      30.05S



USA.gov is the U.S. government's official web portal to all federal, state and local government web resources and services.